sat.trackr.live / text

‹ back to catalog

HULIANWANG DIGUI-39

NORAD 64960 · 2025-159E

PAYLOAD ACTIVE UNKNOWN

§ Identity

Operator
Country
PRC
Launch date
2025-07-27
Launch site
TAISC
Launch vehicle
Mass (kg)
RCS (m²)

External: N2YO · Heavens-Above · Gunter

§ Orbital elements

Epoch: 2026-05-25T04:22:47.587872Z

Period
108.73 min
Inclination
86.4919°
Eccentricity
0.0001877
Mean motion
13.24406098 rev/d
Perigee alt
1,166.5 km
Apogee alt
1,169.4 km
Semi-major
7,546.1 km
B*
9.0586e-5
RAAN
290.1672°
Arg perigee
94.7535°
Mean anomaly
265.3813°
Rev number
4,008

§ Raw data

HULIANWANG DIGUI-391 64960U 25159E   26145.18249523  .00000054  00000+0  90586-4 0  99992 64960  86.4919 290.1672 0001877  94.7535 265.3813 13.24406098 40084

JSON: /api/v1/satellites/64960 · /tle

For live sub-satellite position, see the globe view (requires WebGL).

§ Visibility from observer

Set your observer location to see the next 7 days of passes ≥ 10°. The values pass through the URL so the page stays shareable.

No JS? Fill the form by hand. The geolocation button needs JavaScript.